Content
SEND FEEDBACK

Daily
Averages
Monthly
Summary
United States of America

AKRON, COLORADO


Home > North America > United States > Colorado
Elevation: 4694 feet     Latitude: 40 10N     Longitude: 103 12W

WEATHER
 
SELECT A DAY
Number of Records: 203,140;   Date Range: 1/1/95 - 10/24/14
 
SHARE

PRINT THIS DATA

[ ← Previous Day ]
WEATHER ALMANAC - JANUARY 23, 2013
[ Next Day → ]
[ °C ]   °F
Weather ElementAverageHighLow
Temperature38.7 °F57.9 °F (1:53 pm)24.1 °F (11:53 pm)
Dewpoint9.3 °F21 °F (6:53 pm)-5.1 °F (11:53 am)
Humidity36.7 %77 % (11:53 pm)8 % (11:53 am)
Barometer30.15 in30.25 in (6:53 pm)30.08 in (2:53 am)
Wind Speed10.5 mph19.6 mph (9:53 pm)
Weather ElementAverage
Visibility10 mi
Wind DirectionSSE (168.7 °)

Weather ElementTotal
Precipitation---
Heating Degree Days24 (Base 65)
Averaged from 23 records on January 23, 2013
WEATHER CONDITIONS BREAKOUT
WIND DIRECTION BREAKOUT
WEATHER BY HOUR - JANUARY 23, 2013
[ °C ]   °F
Local TimeTemperatureDewpointHumidityBarometerVisibilityWind DirectionWind SpeedGust SpeedPrecipitationEventsConditions
1:53 AM33.1 °F8.1 °F35 %30.10 in10.0 miSW (230°)12.7 mphClear
2:53 AM35.1 °F7.0 °F31 %30.08 in10.0 miWSW (240°)11.5 mphClear
3:53 AM33.1 °F5.0 °F31 %30.08 in10.0 miWest (260°)15.0 mphClear
4:53 AM34.0 °F5.0 °F30 %30.10 in10.0 miWest (260°)15.0 mphClear
5:53 AM33.1 °F5.0 °F31 %30.12 in10.0 miWest (270°)11.5 mphClear
6:53 AM28.9 °F3.9 °F35 %30.15 in10.0 miWSW (250°)8.1 mphClear
7:53 AM33.1 °F3.9 °F29 %30.14 in10.0 miWSW (240°)8.1 mphClear
8:53 AM42.1 °F9.0 °F26 %30.15 in10.0 miWSW (250°)9.2 mphClear
9:53 AM46.9 °F7.0 °F20 %30.16 in10.0 miWest (280°)3.5 mphClear
10:53 AM50.0 °F7.0 °F18 %30.16 in10.0 miWest (260°)6.9 mphClear
11:53 AM55.0 °F-5.1 °F8 %30.13 in10.0 miCalmClear
12:53 PM55.0 °F0.0 °F11 %30.11 in10.0 miENE (60°)6.9 mphClear
1:53 PM57.9 °F1.0 °F10 %30.09 in10.0 miEast (80°)6.9 mphClear
2:53 PM55.0 °F3.9 °F13 %30.11 in10.0 miEast (90°)5.8 mphClear
3:53 PM51.1 °F10.9 °F20 %30.12 in10.0 miESE (110°)8.1 mphClear
4:53 PM44.1 °F10.9 °F26 %30.15 in10.0 miESE (110°)9.2 mphClear
5:53 PM37.0 °F16.0 °F42 %30.19 in10.0 miESE (110°)11.5 mphClear
6:53 PM32.0 °F21.0 °F64 %30.25 in10.0 miESE (110°)10.4 mphClear
7:53 PM30.0 °F19.9 °F66 %30.24 in10.0 miESE (120°)15.0 mphClear
8:53 PM27.0 °F19.0 °F72 %30.23 in10.0 miESE (120°)13.8 mphClear
9:53 PM26.1 °F19.0 °F75 %30.21 in10.0 miSE (140°)19.6 mphClear
10:53 PM26.1 °F19.0 °F75 %30.21 in10.0 miSE (140°)17.3 mphClear
11:53 PM24.1 °F18.0 °F77 %30.17 in10.0 miSSE (150°)16.1 mphClear
Hourly data recorded from KAKO, located miles away from Akron, Colorado







STORIES FROM OUR PARTNERS